Location: Newark
(24.4667°N, 39.6000°E)
Time: 11:54:51
(UTC+00:00)

N. Korean satellite - Visible Passes

Search period start: 17 November 2019 00:00
Search period end: 27 November 2019 00:00
Orbit: 456 x 506 km, 97.2° (Epoch: 16 November)

Date Brightness Start Highest point End Pass type
(mag) Time Alt. Az. Time Alt. Az. Time Alt. Az.
17 Nov 9.6 02:24:35 10° NE 02:27:20 20° E 02:30:02 10° SE visible
18 Nov 10.0 15:33:13 10° SW 15:35:04 14° W 15:36:56 10° WNW visible
19 Nov 6.6 03:06:17 10° N 03:09:58 86° WNW 03:13:34 10° SSW visible
19 Nov 8.7 15:06:23 10° SSW 15:09:36 32° W 15:12:53 10° NNW visible
20 Nov 8.4 02:41:12 10° NNE 02:44:35 35° E 02:47:54 10° SSE visible
21 Nov 9.9 02:16:58 10° ENE 02:19:08 15° E 02:21:17 10° SE visible
22 Nov 9.8 15:24:19 10° SW 15:26:50 18° W 15:29:23 10° NW visible
23 Nov 6.9 02:58:09 10° NNE 03:01:46 70° E 03:05:19 10° S visible
23 Nov 8.1 14:57:57 10° S 15:01:23 43° W 15:04:53 10° NNW visible
24 Nov 8.9 02:33:15 10° NE 02:36:21 27° E 02:39:25 10° SSE visible
25 Nov 10.1 02:09:41 10° ENE 02:10:52 11° E 02:12:03 10° ESE visible
26 Nov 6.6 03:15:20 10° N 03:18:54 59° WNW 03:22:23 10° SSW visible
26 Nov 9.4 15:15:37 10° SSW 15:18:35 23° W 15:21:35 10° NW visible
